Temperature
8 10 10 10 10 10 10 10 10 10 9 9 10 9 9 8 8 8 7 7 6 6 5 5 6 6 6 6 7 7 7 7 7 7 7 7 7 7 7 7 7 7 7 7
9 9 9 9 9 9 9 9 10 9 9 9 9 9 9 8 7 7 7 6 5 5 4 4 5 5 5 5 6 6 6 6 6 6 6 6 6 6 6 6 6 6 6 7
9 8 8 8 8 8 8 9 9 8 8 8 8 9 9 8 7 6 5 5 5 4 4 4 4 4 4 5 5 5 5 5 6 6 6 6 6 5 5 6 6 6 6 6
8 7 7 8 8 8 8 8 8 7 8 9 8 10 9 8 7 7 6 5 4 4 4 3 4 4 4 4 4 5 5 5 5 5 5 5 5 5 5 5 5 5 5 5
7 7 7 7 7 7 8 7 7 7 7 8 8 8 10 7 7 7 6 5 4 4 3 3 3 3 3 3 4 4 4 4 4 4 4 4 4 4 4 4 4 4 5 5
6 6 6 6 6 6 6 6 6 6 7 7 8 8 10 8 7 7 6 5 4 3 3 3 2 3 3 3 3 3 3 3 3 4 4 4 4 4 4 4 4 4 4 4
6 6 5 5 6 6 6 7 7 7 7 8 6 7 8 7 6 6 5 5 4 3 3 2 2 2 2 3 3 3 3 3 3 3 3 3 3 3 3 3 3 3 3 3
7 7 6 5 6 6 6 6 7 8 8 8 6 7 8 6 5 4 4 3 3 3 2 2 1 1 2 2 2 2 2 2 2 2 3 3 3 3 3 3 3 3 3 3
6 6 5 4 4 6 6 6 6 6 5 6 7 7 7 5 5 4 3 3 2 2 1 1 1 1 1 1 2 2 2 2 2 2 2 2 2 2 2 2 2 2 2 2
5 5 5 4 5 4 5 5 5 5 6 7 8 7 8 6 5 4 4 3 2 1 1 1 1 1 1 1 1 1 1 1 1 1 1 1 2 2 2 2 2 2 2 2
4 4 4 4 4 5 4 4 4 5 5 6 7 8 6 5 5 4 3 2 1 1 0 0 0 0 -0 -0 0 0 1 1 1 1 1 1 1 1 1 1 1 1 1 1
4 4 4 4 4 3 4 5 4 5 4 4 6 7 5 4 3 3 2 1 0 -0 -0 -0 -0 -0 -1 -1 -1 -0 0 0 0 0 0 0 0 0 0 1 1 1 1 1
2 3 4 5 4 3 3 3 3 3 4 4 5 6 4 3 2 1 1 0 -1 -1 -1 -1 -1 -1 -1 -1 -1 -1 -1 -1 -0 -0 -0 -0 -0 -0 -0 0 0 0 0 0
2 2 4 5 5 3 2 2 2 2 3 4 4 5 4 4 3 2 0 -1 -1 -1 -1 -1 -1 -2 -2 -2 -2 -1 -1 -1 -1 -1 -1 -1 -1 -1 -1 -1 -0 -0 -0 -0
2 2 1 2 2 2 2 2 2 1 3 3 4 3 4 3 2 1 -0 -1 -2 -2 -2 -2 -2 -2 -2 -2 -2 -2 -2 -2 -2 -2 -1 -1 -1 -1 -1 -1 -1 -1 -1 -1
0 1 0 1 1 1 1 1 2 2 2 2 2 2 3 1 0 -0 -1 -2 -2 -2 -2 -2 -2 -3 -3 -2 -2 -2 -2 -2 -2 -2 -2 -2 -2 -2 -2 -1 -1 -1 -1 -1
-0 -0 1 3 0 0 2 2 1 1 1 2 2 3 2 1 0 -1 -1 -2 -2 -3 -3 -3 -3 -3 -3 -3 -3 -3 -3 -3 -3 -3 -3 -2 -2 -2 -2 -2 -2 -2 -1 -1
-1 -0 0 1 1 2 3 0 1 0 0 1 1 1 0 -0 -1 -2 -2 -2 -3 -3 -3 -3 -3 -3 -3 -3 -3 -3 -3 -3 -3 -3 -3 -3 -3 -2 -2 -2 -2 -2 -2 -2
-1 -1 0 1 2 3 2 0 -1 -1 -0 -0 -1 -1 -1 -2 -2 -1 -2 -2 -3 -3 -3 -3 -3 -3 -3 -3 -3 -3 -3 -3 -3 -3 -3 -3 -3 -3 -3 -3 -3 -2 -2 -2
-3 -2 0 0 2 3 3 -0 -2 -1 1 -0 -2 -2 -2 -2 -0 -0 -2 -3 -3 -3 -3 -4 -4 -4 -4 -4 -4 -4 -4 -4 -4 -4 -3 -3 -3 -3 -3 -3 -3 -3 -3 -3
-2 -1 -1 0 1 2 1 -2 -2 1 1 -1 -2 -2 -3 -2 -2 -3 -3 -3 -4 -4 -4 -4 -4 -4 -4 -4 -4 -4 -4 -4 -4 -4 -4 -4 -4 -4 -3 -3 -3 -3 -3 -3
-0 -0 -1 -0 1 2 -2 -2 -0 0 -2 -2 -3 -3 -3 -4 -4 -4 -4 -4 -4 -4 -4 -4 -4 -4 -4 -4 -4 -4 -4 -4 -4 -4 -4 -4 -4 -4 -4 -4 -4 -4 -4 -4
-1 -1 -0 -0 1 -1 -3 -2 -2 -2 -2 -3 -3 -3 -4 -4 -4 -4 -4 -4 -4 -4 -4 -5 -5 -5 -5 -5 -5 -5 -5 -5 -5 -5 -5 -5 -5 -4 -5 -4 -4 -4 -4 -4
-2 -4 -3 -3 -1 -2 -3 -3 -2 -3 -3 -3 -3 -3 -4 -4 -4 -4 -4 -4 -4 -5 -5 -5 -5 -5 -5 -5 -5 -5 -5 -5 -5 -5 -5 -5 -5 -5 -5 -5 -5 -5 -5 -5
-2 -3 -3 -3 -2 -3 -3 -2 -2 -3 -3 -3 -3 -4 -4 -4 -4 -4 -4 -5 -5 -5 -5 -5 -5 -5 -5 -5 -5 -5 -5 -5 -5 -5 -5 -5 -5 -5 -5 -5 -6 -5 -5 -5
-3 -3 -2 -1 -1 -2 -2 -2 -2 -3 -3 -3 -4 -4 -4 -5 -5 -5 -5 -5 -5 -5 -5 -5 -5 -5 -5 -5 -5 -5 -5 -5 -5 -5 -6 -6 -6 -6 -6 -6 -6 -6 -6 -6
Wind_Speed
1 2 3 3 4 4 4 6 7 6 3 5 8 9 8 5 5 5 4 3 2 2 2 3 4 4 4 4 4 4 3 3 2 1 1 1 1 1 1 2 3 3 3 3
2 2 3 3 3 3 5 6 7 5 2 4 7 10 8 5 5 5 4 3 2 2 2 3 4 4 4 4 4 4 3 3 2 1 1 1 1 1 1 1 2 3 3 3
3 1 2 2 3 4 5 6 6 6 5 4 6 8 6 4 3 2 3 3 2 2 2 2 3 3 4 4 4 3 3 3 2 2 1 1 1 1 1 1 1 2 3 2
1 2 2 3 4 5 5 4 5 6 5 4 4 7 6 5 4 3 2 2 2 2 2 2 2 3 3 4 3 3 3 3 3 2 1 1 1 2 3 2 2 2 2 2
1 1 2 3 3 4 3 2 4 5 5 5 5 6 5 4 6 5 3 3 3 2 2 2 2 2 3 3 3 3 3 3 3 2 2 2 2 2 2 2 2 2 2 2
1 1 1 2 2 2 1 1 2 3 4 6 6 7 6 4 5 4 4 3 3 2 2 2 2 2 3 3 3 3 3 4 4 3 3 3 3 3 3 3 2 2 2 2
1 1 0 1 1 1 1 2 2 3 4 4 1 6 6 1 3 4 4 3 3 3 2 2 2 3 3 4 4 3 3 4 4 4 4 4 4 4 3 3 3 3 2 2
2 2 1 0 1 2 3 3 3 4 5 4 3 6 4 1 2 3 3 3 3 3 3 2 2 3 3 3 3 3 3 4 4 4 4 4 4 3 3 3 3 3 2 3
2 2 1 1 1 1 2 3 2 2 3 5 5 5 5 3 3 3 3 3 4 3 3 3 3 3 3 4 4 3 3 4 4 4 4 4 4 3 3 3 3 2 2 2
2 3 2 1 1 1 2 2 2 3 3 6 6 6 4 3 5 4 4 4 4 3 4 4 4 4 4 4 4 4 3 4 4 4 4 3 4 4 3 3 3 2 2 2
2 2 2 2 3 3 2 2 3 3 4 5 7 5 1 3 4 5 5 4 4 4 4 5 5 4 4 4 4 4 4 4 4 4 4 3 3 3 3 3 3 3 2 2
2 2 4 4 2 2 4 4 5 4 5 5 6 6 2 2 3 4 5 5 6 5 5 5 5 5 5 5 5 5 4 4 4 4 3 3 3 3 3 3 3 3 3 2
3 3 2 2 2 2 3 4 4 4 4 6 8 7 0 3 4 5 6 6 5 5 6 6 5 5 5 5 5 5 5 4 4 4 3 3 3 3 3 3 3 3 3 3
2 3 5 6 4 3 5 6 6 6 7 9 12 13 9 8 7 7 6 6 6 6 6 6 5 5 5 5 6 6 5 4 4 4 3 3 3 3 4 3 3 3 3 3
2 4 5 8 7 6 8 9 9 11 11 11 12 12 12 9 8 7 6 6 6 6 6 6 6 5 5 5 6 5 5 4 3 3 3 3 3 3 3 3 3 3 3 2
1 3 3 6 6 7 10 12 12 13 13 14 15 14 10 7 6 6 6 5 6 6 7 7 6 6 6 6 6 5 5 4 3 3 3 3 3 3 3 3 3 3 2 2
3 3 3 5 4 5 9 9 10 8 9 10 13 11 7 7 7 7 7 6 7 7 7 7 7 6 6 6 6 5 5 4 3 3 3 2 3 3 4 3 3 2 2 2
4 4 3 3 2 8 4 1 5 7 8 9 9 8 7 8 8 8 7 7 7 7 7 7 7 7 6 6 6 5 4 4 3 3 3 3 3 3 3 3 3 2 2 2
4 4 3 3 5 9 5 3 3 5 7 6 8 8 7 7 8 7 4 5 7 8 8 7 7 7 6 5 5 4 4 3 3 3 3 3 3 3 3 3 3 2 2 2
1 3 4 4 5 7 3 1 0 2 5 2 4 6 6 6 7 6 5 7 7 7 6 6 6 6 5 5 4 4 4 3 3 3 3 3 3 4 3 3 3 2 2 2
3 3 6 8 7 7 2 1 2 3 3 1 3 5 5 7 7 7 8 7 7 7 6 6 5 5 5 4 3 3 3 3 3 3 3 3 3 3 3 3 2 2 2 2
5 5 6 5 7 7 2 3 4 3 3 3 5 5 6 8 8 8 8 7 7 6 6 5 5 5 4 4 3 3 4 3 3 3 2 2 3 2 2 2 1 1 1 1
6 5 4 6 6 3 3 5 4 3 4 5 5 6 6 7 8 8 8 7 6 6 5 5 5 5 4 3 3 4 3 3 2 2 2 2 2 2 1 1 1 1 0 1
5 3 4 6 8 7 7 7 6 5 6 6 7 7 6 8 8 8 7 6 6 5 5 4 4 4 4 4 3 3 3 3 2 2 2 2 1 1 1 1 1 1 1 1
5 5 5 7 8 7 7 7 6 6 6 6 7 7 7 7 8 8 7 6 5 5 5 4 4 4 5 4 4 3 2 2 2 2 1 1 1 1 1 1 1 2 2 2
6 6 6 7 6 5 6 5 5 6 6 6 7 7 6 7 7 7 7 6 5 5 4 4 4 5 5 4 3 3 2 2 2 1 1 1 1 1 1 1 2 2 2 4
Wind_Direction
43 179 209 220 226 251 248 244 253 260 281 264 255 261 266 255 250 252 257 264 278 301 357 21 22 25 27 23 23 22 25 21 18 359 331 303 327 341 357 9 5 359 355 358
168 225 255 252 235 247 254 255 264 275 283 271 269 268 263 248 246 253 251 249 265 307 6 20 20 25 24 20 14 14 14 14 7 335 309 293 292 284 322 356 360 358 350 346
206 270 258 226 228 248 251 254 262 273 291 255 273 261 237 222 214 238 254 255 252 275 314 356 12 16 16 12 5 0 358 359 357 347 339 2 336 313 315 327 339 348 336 329
219 272 226 224 235 247 251 256 256 258 259 258 254 272 238 219 229 235 258 270 270 280 299 335 351 359 359 358 358 356 358 358 355 353 323 298 292 291 294 299 301 318 324 324
219 269 228 234 251 245 271 294 260 259 252 266 238 255 254 210 232 238 251 274 282 286 294 315 329 339 349 355 359 357 1 0 356 346 322 295 284 287 296 297 295 302 311 318
256 294 287 277 289 235 245 252 256 234 237 251 239 240 265 220 230 239 249 272 298 297 301 311 324 340 349 356 2 2 3 357 351 343 327 310 299 291 288 292 294 294 302 306
243 189 13 307 261 183 242 253 254 233 232 248 217 243 260 236 248 252 255 264 298 305 299 307 322 334 342 348 351 349 349 345 341 335 328 312 296 288 275 278 283 288 293 296
238 245 173 289 260 249 228 242 254 270 270 279 234 247 267 272 277 284 271 271 312 316 316 314 312 316 326 332 330 330 329 327 328 324 323 318 303 289 283 277 277 278 281 290
236 248 17 308 304 258 207 219 288 281 285 271 251 258 272 253 266 287 288 293 307 308 311 308 306 313 318 317 315 309 306 313 319 317 317 320 314 298 288 287 279 279 288 297
231 258 270 295 214 354 287 189 197 222 259 269 268 263 265 250 263 280 293 299 309 310 309 309 306 306 310 308 304 302 297 299 307 311 312 312 309 299 287 280 278 279 289 297
218 233 259 224 226 233 185 198 227 231 259 267 279 278 300 264 279 286 298 309 312 315 313 308 304 305 312 313 308 304 301 302 307 311 313 310 310 302 288 280 278 280 282 292
200 227 254 252 274 290 244 233 220 241 246 249 270 279 63 275 301 301 306 312 311 310 310 305 306 312 316 314 312 307 303 300 303 309 310 305 307 302 289 283 280 277 278 282
178 192 252 242 201 197 239 241 245 262 258 248 256 270 52 318 315 314 312 311 311 309 313 312 312 314 314 314 311 308 304 300 303 307 306 305 307 303 291 286 283 274 271 274
209 204 232 259 284 242 252 244 235 232 246 254 254 271 282 294 300 307 309 309 307 308 314 314 311 310 313 314 313 307 304 302 300 300 300 302 305 302 293 288 281 276 271 269
207 234 244 264 276 269 262 254 238 234 245 253 267 272 280 290 294 296 303 307 308 312 317 317 314 312 311 313 315 311 309 305 296 292 297 305 309 305 297 290 284 277 273 271
195 231 255 266 263 266 270 261 247 246 250 252 266 274 284 294 294 294 298 299 302 308 313 315 311 308 306 306 309 312 313 308 296 294 302 314 316 310 302 295 288 277 276 276
191 188 241 271 290 281 265 249 236 241 238 242 254 267 286 295 296 296 293 289 295 303 305 306 308 301 298 298 297 296 299 302 301 302 306 312 310 308 303 299 289 277 279 288
192 195 228 271 278 255 270 270 232 243 257 250 257 271 283 294 303 295 282 282 292 297 298 301 305 303 299 296 296 296 298 298 297 299 302 309 309 304 301 296 286 285 284 284
216 196 210 236 262 275 276 237 219 238 273 253 249 267 287 307 303 289 281 291 294 292 295 298 302 302 299 295 294 292 291 292 291 293 299 304 303 298 295 292 288 287 282 282
156 202 215 227 255 266 282 153 195 241 268 237 242 268 289 300 291 296 312 304 298 298 298 303 308 305 297 295 290 279 281 284 287 295 299 299 297 290 286 286 288 284 277 269
188 205 219 233 250 266 274 154 172 231 287 296 261 268 276 277 283 302 305 300 297 297 300 305 305 303 299 296 283 273 277 284 291 299 300 299 294 289 285 284 283 280 281 283
204 203 211 213 232 253 164 163 214 269 313 277 278 276 278 283 292 294 296 298 301 303 306 308 304 301 299 290 278 277 283 294 298 299 295 295 297 300 297 292 294 291 282 278
220 221 222 217 238 287 212 233 264 276 269 276 278 284 283 285 289 291 293 296 298 300 303 304 300 299 298 289 278 278 290 296 292 289 285 287 297 309 312 308 308 307 300 300
233 228 233 255 260 262 260 260 264 264 268 280 281 279 276 282 286 288 291 293 293 296 297 300 298 297 300 299 292 283 285 280 272 273 282 286 300 325 335 322 317 322 326 313
238 201 229 255 270 283 265 250 260 273 274 276 282 279 274 277 282 284 287 286 287 289 293 292 288 289 294 298 293 287 273 255 257 261 269 291 309 316 322 323 323 321 318 315
219 213 223 252 253 252 272 275 272 269 272 275 281 284 282 277 278 280 282 282 282 283 288 287 286 286 292 292 285 283 266 240 238 245 266 292 308 319 320 330 342 354 329 336
Height
1510 1509 1507 1508 1509 1508 1506 1505 1504 1505 1508 1509 1505 1504 1505 1507 1508 1508 1508 1508 1508 1507 1507 1506 1505 1504 1503 1503 1502 1502 1502 1501 1501 1501 1500 1500 1500 1499 1499 1499 1498 1498 1497 1497
1509 1510 1511 1511 1511 1510 1508 1507 1505 1507 1509 1508 1505 1503 1502 1505 1506 1506 1506 1506 1506 1506 1505 1504 1503 1502 1502 1501 1501 1500 1500 1499 1499 1499 1498 1498 1498 1497 1497 1496 1496 1495 1495 1495
1507 1511 1513 1512 1511 1510 1509 1507 1507 1508 1508 1508 1507 1498 1498 1501 1503 1504 1504 1504 1504 1504 1503 1502 1502 1501 1500 1499 1498 1498 1498 1498 1497 1497 1496 1496 1495 1495 1495 1494 1493 1493 1493 1492
1510 1512 1512 1511 1510 1510 1507 1509 1509 1509 1506 1500 1504 1492 1491 1497 1499 1501 1502 1502 1502 1502 1501 1501 1500 1499 1498 1498 1497 1497 1496 1496 1495 1495 1494 1494 1493 1492 1492 1491 1491 1490 1490 1490
1511 1513 1512 1510 1510 1510 1508 1510 1510 1508 1505 1503 1502 1500 1485 1494 1495 1497 1499 1500 1500 1500 1499 1499 1498 1498 1497 1497 1496 1496 1495 1494 1493 1492 1492 1491 1491 1491 1490 1489 1489 1488 1488 1487
1512 1514 1514 1512 1512 1512 1512 1511 1510 1508 1505 1503 1497 1496 1481 1487 1490 1493 1496 1498 1498 1497 1497 1497 1497 1496 1496 1495 1494 1494 1493 1492 1491 1490 1489 1489 1488 1488 1488 1487 1487 1486 1486 1485
1511 1512 1514 1514 1511 1511 1511 1508 1503 1500 1499 1492 1500 1497 1485 1489 1492 1493 1494 1495 1495 1495 1495 1495 1494 1494 1493 1492 1492 1491 1490 1489 1489 1488 1487 1486 1486 1486 1485 1485 1484 1483 1483 1483
1508 1507 1513 1514 1512 1510 1509 1508 1503 1497 1490 1487 1500 1492 1485 1491 1493 1493 1494 1494 1494 1494 1493 1493 1492 1492 1491 1490 1489 1489 1488 1487 1486 1485 1484 1484 1483 1483 1482 1482 1482 1481 1480 1480
1508 1508 1514 1514 1514 1512 1509 1508 1509 1507 1508 1502 1487 1487 1488 1490 1491 1492 1492 1492 1492 1492 1491 1491 1490 1490 1488 1487 1487 1486 1485 1484 1483 1482 1482 1481 1480 1479 1479 1479 1479 1478 1477 1477
1513 1513 1512 1514 1514 1514 1512 1510 1510 1508 1501 1489 1482 1482 1480 1486 1488 1489 1490 1490 1490 1490 1489 1489 1488 1487 1486 1485 1484 1483 1482 1481 1480 1480 1478 1477 1477 1476 1476 1476 1475 1475 1474 1474
1515 1514 1513 1513 1512 1509 1512 1513 1510 1507 1504 1494 1484 1478 1484 1486 1487 1488 1489 1489 1489 1488 1487 1486 1486 1485 1483 1482 1481 1480 1479 1478 1477 1476 1475 1474 1473 1473 1473 1473 1472 1472 1472 1471
1515 1513 1510 1510 1512 1513 1511 1508 1508 1506 1504 1502 1491 1484 1487 1488 1488 1489 1489 1488 1487 1487 1486 1484 1483 1482 1480 1479 1478 1476 1475 1474 1474 1473 1472 1471 1470 1470 1470 1470 1469 1469 1469 1469
1515 1515 1509 1504 1511 1514 1512 1511 1511 1510 1506 1500 1493 1485 1488 1488 1488 1488 1488 1487 1486 1485 1483 1482 1481 1479 1478 1476 1474 1473 1472 1471 1470 1469 1469 1468 1467 1467 1467 1466 1466 1466 1466 1466
1514 1513 1509 1500 1498 1506 1509 1510 1511 1509 1502 1495 1490 1484 1485 1486 1486 1487 1487 1486 1485 1483 1481 1480 1478 1476 1475 1473 1471 1470 1468 1467 1467 1466 1465 1465 1464 1464 1464 1463 1463 1463 1463 1463
1513 1510 1511 1508 1508 1508 1506 1505 1506 1506 1498 1495 1487 1488 1484 1485 1486 1486 1485 1484 1482 1481 1479 1477 1475 1474 1472 1470 1469 1467 1465 1464 1464 1463 1463 1462 1461 1461 1461 1460 1460 1460 1459 1459
1513 1512 1513 1510 1508 1508 1505 1501 1500 1499 1496 1493 1490 1487 1485 1486 1485 1484 1483 1482 1480 1478 1476 1474 1473 1471 1469 1468 1466 1464 1463 1462 1461 1461 1460 1459 1458 1458 1458 1457 1457 1456 1456 1456
1512 1513 1509 1500 1507 1507 1495 1492 1493 1492 1491 1490 1486 1483 1483 1483 1483 1482 1481 1479 1478 1476 1474 1472 1470 1468 1467 1465 1464 1462 1461 1460 1459 1458 1457 1457 1456 1455 1455 1454 1454 1454 1453 1453
1511 1510 1508 1503 1506 1496 1485 1490 1490 1489 1488 1487 1485 1484 1483 1483 1482 1480 1479 1477 1475 1473 1471 1469 1467 1465 1464 1462 1461 1460 1459 1458 1457 1456 1455 1454 1454 1453 1453 1452 1452 1451 1451 1451
1508 1508 1506 1503 1495 1485 1485 1488 1489 1489 1485 1484 1484 1483 1482 1481 1479 1476 1476 1475 1473 1471 1469 1467 1465 1463 1461 1459 1458 1457 1456 1455 1454 1453 1453 1452 1451 1451 1450 1449 1449 1449 1448 1448
1509 1508 1505 1502 1493 1483 1480 1487 1488 1489 1482 1481 1482 1481 1481 1480 1475 1472 1473 1471 1469 1468 1466 1464 1462 1460 1458 1457 1455 1454 1453 1452 1451 1451 1450 1449 1449 1448 1448 1447 1446 1446 1446 1446
1505 1504 1502 1497 1491 1480 1484 1487 1488 1484 1477 1480 1479 1479 1479 1477 1475 1473 1470 1468 1466 1464 1462 1460 1459 1457 1455 1454 1453 1452 1451 1450 1449 1448 1447 1447 1446 1446 1445 1445 1444 1444 1444 1444
1495 1495 1497 1494 1490 1481 1483 1485 1483 1479 1479 1478 1477 1476 1475 1473 1471 1469 1467 1465 1463 1461 1459 1457 1456 1454 1453 1452 1450 1449 1448 1447 1446 1446 1445 1444 1444 1444 1443 1443 1442 1442 1442 1442
1493 1491 1488 1487 1482 1480 1480 1480 1479 1478 1477 1476 1475 1474 1472 1470 1467 1465 1463 1462 1460 1458 1456 1455 1453 1452 1450 1449 1448 1446 1445 1445 1444 1443 1443 1442 1442 1442 1441 1441 1440 1440 1440 1440
1490 1491 1490 1487 1479 1478 1477 1477 1476 1475 1475 1473 1472 1471 1469 1467 1464 1462 1460 1458 1456 1455 1453 1452 1450 1449 1447 1446 1445 1444 1443 1442 1442 1441 1441 1440 1440 1439 1439 1439 1439 1438 1438 1438
1484 1487 1485 1482 1477 1476 1473 1473 1472 1472 1471 1470 1469 1467 1465 1463 1461 1459 1457 1455 1453 1452 1450 1449 1447 1446 1445 1444 1443 1442 1441 1440 1440 1439 1439 1438 1438 1438 1437 1437 1437 1437 1437 1437
1480 1480 1478 1473 1472 1472 1470 1470 1470 1469 1467 1466 1465 1463 1462 1460 1458 1456 1454 1452 1450 1449 1447 1446 1445 1444 1442 1441 1440 1440 1439 1438 1438 1438 1437 1437 1437 1436 1436 1436 1436 1436 1436 1435